sat.trackr.live / text

‹ back to catalog

STARLINK-36840

NORAD 67850 · 2026-034A

PAYLOAD ACTIVE UNKNOWN

§ Identity

Operator
Country
US
Launch date
2026-02-20
Launch site
AFETR
Launch vehicle
Mass (kg)
RCS (m²)

Purposes: comms

External: N2YO · Heavens-Above · Gunter

§ Orbital elements

Epoch: 2026-09-19T19:16:52.267872Z

Period
93.85 min
Inclination
53.1598°
Eccentricity
0.0001194
Mean motion
15.34416763 rev/d
Perigee alt
461.8 km
Apogee alt
463.5 km
Semi-major
6,840.8 km
B*
7.2710e-4
RAAN
20.6207°
Arg perigee
78.1426°
Mean anomaly
281.9710°
Rev number
3,378

§ Raw data

STARLINK-368401 67850U 26034A   26262.80338273  .00024283  00000+0  72710-3 0  99912 67850  53.1598  20.6207 0001194  78.1426 281.9710 15.34416763 33788

JSON: /api/v1/satellites/67850 · /tle

For live sub-satellite position, see the globe view (requires WebGL).

§ Visibility from observer

Set your observer location to see the next 7 days of passes ≥ 10°. The values pass through the URL so the page stays shareable.

No JS? Fill the form by hand. The geolocation button needs JavaScript.